Location: *
(37.5724°S, 58.0067°E)
Time: 20:22:04
(UTC+00:00)

Cosmos 1452 Rocket - Pass Details

Date: 26 September 2020
Orbit: 766 x 775 km, 74.1° (Epoch: 27 October)

Event Time Altitude Azimuth Distance (km) Brightness Sun altitude
Rises 16:40:50 0° 197° (SSW) 3,277 7.4 -29.8°
Reaches altitude 10° 16:43:15 10° 195° (SSW) 2,342 6.5 -30.2°
Enters shadow 16:46:47 43° 187° (S) 1,093 4.4 -30.8°
